Torna al catalogo

IMPULSE-2 MIRA

AttivoScienzaSSO
NORAD 62673·PAYLOAD·🇺🇸 United States

Lanciato Jan 14, 2025 da Vandenberg Space Force Base

Loading…

Prossimi Passaggi (prossime 24 ore)

TLE

AggiornatoSource: Space-Track

Epoca: Sep 13, 2026, 22:43 UTC

1 62673U 25009BS  26256.94708433  .00005443  00000-0  23980-3 0  9990
2 62673  97.4186 329.4354 0002854 176.8342 183.2913 15.22230107150108

Traccia IMPULSE-2 MIRA in tempo reale con AllMySat

Download on the App Store